NOAA 16 DEB, 41510

Orbit data source: Space-Track

NOAA 16 DEB, 41510 is space debris in SSO originally from a launch on Thu, 21 Sep 2000 UTC launched from the Air Force Western Test Range (AFWTR). Debris objects in space refer to the collection of defunct objects orbiting the Earth. Examples of debris include non-operational satellites, rocket bodies, and fragments generated from explosions, collisions, or faulty payload assembly.

Loading next visibility...
Identifier
41510, 2000-055MJ
Orbit
SSO
Country
Flag of USUS
Related business
Manufacturer
Unknown
Mission
Spacecraft
Bus & Motor
Unknown
Mass
Unknown
Launch date (UTC)
2000-09-21 (26 years ago)
Launch vehicle
Unknown
Launch site
Air Force Western Test Range (AFWTR)
Object type
Payload
Rocket body
Debris
Shape & HBR
Unknown shape, 0.1 m
Radar Cross Section
Medium (>0.1 m² and <1 m²)

Expand to show TLE details & history
Last TLE update: 2 days ago

TLE from 2 days ago
0 NOAA 16 DEB
1 41510U 00055MJ  26171.21443691  .00002613  00000-0  10309-2 0  9995
2 41510  98.7557 264.8989 0021898   6.5433 353.6031 14.29829542529822
Epoch: 2026-06-20T05:08Z
TLE epoch observation values (Epoch: 2026-06-20T05:08:47.349Z)
Latitude
0.00004°
Longitude
-80.73066°
Altitude
779.62 km
Speed
7.472 km/s
True Right ascension
17h 39m 35s
True Declination
0° 00' 00"
Sunlit
Object was in full shadow at epoch
Visualization orbit readout
Latitude
Unknown
Longitude
Unknown
Altitude
Unknown
Speed
Unknown
Apparent Right ascension
Unknown
Apparent Declination
Unknown
Sunlit
N/A
Visualization observer readout
Local Sidereal Time
20:00:51
Azimuth
Unknown
Elevation
Unknown
Doppler factor
Unknown
Orbital elements
Apogee altitude
805.144 km
Perigee altitude
773.753 km
Semi-major axis
7,167.585 km
Eccentricity
0.00219
Inclination
98.7557°
RAAN
264.8989°
Arg. of periapsis
6.5433°
True anomaly
353.57507°
Mean anomaly
353.6031°
Eccentric anomaly
353.58909°
Mean motion
3.57671 °/min
Orbital period
100.65 mins
BSTAR
0.0010309
Loading maneuver chart data...
Computing Atmospheric mass density...

Documentation

Showing up to 5 results
|